Location: Unspecified
(48.2080°N, 16.3740°E)
Time: 17:50:18
(UTC+00:00)

Daily predictions for brighter satellites

Satellite Brightness Start Highest point End
(mag) Time Altitude Azimuth Time Altitude Azimuth Time Altitude Azimuth
Meteor 2-3 Rocket 4.2 18:42:09 10° SSW 18:47:56 71° WNW 18:53:46 10° N
Meteor 1-10 Rocket 4.5 18:42:57 10° N 18:48:30 54° ENE 18:54:08 10° SSE
FREGAT/IRIS 3.5 18:49:52 10° S 18:52:25 44° W 18:54:58 10° NNW
Cosmos 2218 Rocket 4.1 18:48:03 10° S 18:54:14 85° W 19:00:26 10° N
Cosmos 1782 3.4 18:53:00 10° NNW 18:56:59 62° W 19:00:57 10° S
H-2A R/B 3.8 18:52:54 10° SSW 18:57:33 33° W 19:02:08 10° NNW
Cosmos 1980 Rocket 3.3 18:54:53 10° NNW 18:59:56 31° NE 19:04:56 10° ESE
Cosmos 1805 Rocket 3.9 18:56:20 10° SSE 19:00:33 45° E 19:04:48 10° NNE
ERBS 2.8 18:59:02 10° WSW 19:02:21 62° NNW 19:05:39 10° NE
DMSP B5D2-2 4.1 18:59:48 10° NNE 19:05:04 86° ESE 19:10:19 10° SSW
ATLAS 5 CENTAUR R/B 2.5 19:03:01 10° NW 19:08:41 76° SW 19:15:16 10° SSE
Cosmos 1140 Rocket 4.4 19:05:40 10° SSE 19:10:07 29° E 19:14:34 10° NE
SL-4 R/B 3.0 19:07:05 10° SSW 19:10:18 24° SE 19:13:21 10° E
Cosmos 1697 Rocket 2.8 19:10:26 10° NNW 19:16:03 64° ENE 19:21:20 11° SE
Cosmos 1833 Rocket 3.0 19:11:52 10° S 19:17:10 46° ESE 19:22:32 10° NE
Cosmos 2228 Rocket 3.6 19:12:54 10° NNW 19:17:18 63° W 19:21:39 10° S
CENTAUR R/B 4.2 19:18:05 10° ESE 19:18:42 10° E 19:19:19 10° E
Cosmos 389 Rocket 2.4 19:16:56 10° NNW 19:20:24 86° W 19:23:50 10° S
SPOT 3 Rocket 3.8 19:16:19 10° S 19:21:32 73° WSW 19:26:45 10° NNW
Cosmos 1633 Rocket 3.9 19:18:18 10° SSE 19:22:12 32° E 19:26:09 10° NNE
Cosmos 1812 2.7 19:18:25 10° N 19:22:17 83° ENE 19:26:07 10° S
Cosmos 1727 Rocket 4.4 19:16:01 10° NNW 19:22:20 69° W 19:28:38 10° S
Cosmos 2251 Rocket 4.2 19:18:59 10° SW 19:24:10 61° WNW 19:29:27 10° NNE
Cosmos 1656 4.0 19:22:09 10° NNW 19:27:35 64° WSW 19:33:02 10° SSE
Cosmos 1707 Rocket 3.5 19:27:24 10° N 19:31:46 68° E 19:35:44 12° SSE
IRIDIUM 104 4.4 19:26:47 10° S 19:32:00 83° W 19:37:16 10° N
Cosmos 220 Rocket 4.1 19:27:53 10° NNW 19:32:05 74° WSW 19:36:05 11° SSE
Resurs 01 Rocket 1.8 19:28:15 10° S 19:32:39 76° WSW 19:37:06 10° NNW
Landsat 7 4.1 19:30:06 13° SE 19:34:09 55° ENE 19:38:48 10° N
FALCON 9 DEB 4.1 19:35:31 10° SSW 19:38:29 26° SE 19:41:27 10° E
Cosmos 1441 Rocket 3.2 19:34:54 10° SSW 19:38:43 82° WNW 19:42:29 10° N
Cosmos 1934 Rocket 4.2 19:33:14 10° SSE 19:39:24 55° E 19:45:36 10° NNE
Cosmos 614 Rocket 4.0 19:37:25 10° SSW 19:42:35 89° ESE 19:47:49 10° NNE
Cosmos 2360 4.2 19:37:16 10° NNW 19:43:03 78° ENE 19:47:32 17° SSE
NOSS 3-2 (A) 4.2 19:38:51 10° S 19:43:34 28° ESE 19:48:47 10° ENE
IGS 5A 3.5 19:41:07 16° SSE 19:44:17 66° ENE 19:48:25 10° N
Cosmos 1470 Rocket 4.5 19:42:24 18° SE 19:44:52 31° E 19:48:44 10° NNE
USA 267 3.2 19:40:19 10° ENE 19:46:53 75° SE 19:53:26 10° SW
SWAS 4.4 19:45:46 10° SSW 19:50:01 63° ESE 19:54:19 10° NE
GP-B 3.3 19:45:44 10° N 19:50:07 54° E 19:53:14 18° SSE
Cosmos 1821 Rocket 4.1 19:46:29 10° SSW 19:52:37 77° W 19:58:52 10° N
COSMOS 2406 3.6 19:49:24 10° SW 19:55:08 70° WNW 20:00:54 10° NNE
Meteor 2-20 Rocket 4.5 19:49:30 10° N 19:55:41 69° ENE 20:00:27 18° SSE
Shenzhou-11 Module 3.4 19:54:14 10° WSW 19:55:30 17° SSW 19:55:30 17° SSW
Cosmos 921 Rocket 3.7 19:52:00 10° N 19:55:59 38° ENE 19:58:03 23° ESE
Intercosmos 25 4.4 19:53:40 10° NNW 19:58:04 44° W 20:01:19 10° SSW
Cosmos 1862 Rocket 3.6 19:53:50 10° N 19:58:18 64° ENE 20:01:01 23° SSE
SL-16 R/B 3.5 19:53:45 10° NNW 19:58:39 29° NE 20:02:26 15° E
ERS-1 Rocket 3.3 19:56:09 21° SE 19:59:19 53° ENE 20:04:12 10° N
Lacrosse 5 2.8 19:57:16 10° NW 20:02:07 42° NNE 20:06:22 13° E
Cosmos 2369 4.0 19:58:08 10° NNW 20:03:49 67° WSW 20:08:05 18° SSE
Sich 1 3.8 20:00:34 10° SSW 20:04:54 54° WNW 20:09:18 10° N
SAR-Lupe-2 4.3 20:03:35 10° NNE 20:06:54 34° E 20:07:36 31° SE
Cosmos 1818 4.3 20:03:26 10° NW 20:08:38 46° WSW 20:12:24 18° S
BREEZE-M DEB (TANK) 1.7 20:06:58 10° W 20:09:28 66° N 20:09:55 45° ENE
Cosmos 2082 Rocket 2.1 20:04:31 10° SSW 20:10:11 70° ESE 20:15:51 10° NNE
Cosmos 1954 Rocket 4.1 20:06:50 11° S 20:11:54 59° ESE 20:17:08 10° NNE
Cosmos 2123 Rocket 4.1 20:06:43 10° N 20:12:56 79° W 20:18:06 16° S
Cosmos 2278 3.7 20:07:24 10° NNW 20:13:09 81° WSW 20:16:44 24° SSE
Spot 2 Rocket 3.8 20:11:25 17° S 20:15:21 66° WSW 20:20:27 10° NNW
Cosmos 1535 Rocket 4.5 20:09:33 10° S 20:15:43 88° WNW 20:21:52 10° N
Meteor 1-4 Rocket 3.2 20:17:17 10° NNW 20:20:39 47° W 20:22:26 23° SSW
Cosmos 2322 Rocket 3.3 20:16:03 10° NNW 20:21:12 33° NE 20:24:25 19° E
CARTOSAT-1 3.5 20:20:05 31° SSE 20:22:09 82° ENE 20:26:30 10° NNW
Cosmos 1184 Rocket 2.7 20:21:02 32° SSW 20:22:26 87° W 20:25:46 10° N
USA 234 3.3 20:18:46 24° SE 20:22:55 73° SW 20:29:29 10° WNW
Cosmos 1190 Rocket 4.3 20:17:41 10° SSW 20:22:57 72° WNW 20:28:17 10° NNE
Terra 2.1 20:21:08 30° SE 20:23:15 55° ENE 20:27:54 10° N
Cosmos 407 Rocket 4.2 20:20:43 10° SW 20:25:57 57° WNW 20:31:11 10° NNE
Cosmos 1933 Rocket 3.7 20:24:16 33° SSE 20:25:59 56° E 20:30:20 10° NNE
Cosmos 1605 Rocket 3.9 20:21:08 17° S 20:26:00 78° E 20:32:07 10° NNE
Cosmos 1666 Rocket 4.4 20:22:21 10° SSW 20:26:32 48° WNW 20:30:45 10° N
Meteor 1-20 Rocket 4.2 20:23:25 18° S 20:27:53 77° E 20:33:45 10° NNE
Cosmos 1238 Rocket 2.0 20:28:02 64° SE 20:28:20 71° E 20:31:16 10° NNE
Okean 1 3.4 20:26:15 10° N 20:30:17 64° E 20:31:27 42° SE
Cosmos 1602 3.8 20:31:37 44° SSE 20:32:34 59° E 20:36:27 10° NNE
ATLAS 3B R/B 4.2 20:34:00 15° E 20:34:00 15° E 20:36:39 10° ENE
Cosmos 1437 Rocket 3.1 20:31:07 10° N 20:34:49 46° ENE 20:35:27 42° ESE
Cosmos 2360 Rocket 3.7 20:30:32 10° N 20:35:16 26° NE 20:38:35 16° E
SPOT 5 2.5 20:35:54 36° S 20:37:38 83° WSW 20:42:01 10° NNW
USA 238 DEB 3.6 20:32:33 10° SSW 20:39:04 64° ESE 20:45:53 10° NE
USA 238 3.6 20:32:40 10° SSW 20:39:11 63° SE 20:45:59 10° NE
Meteor 1-19 Rocket 4.1 20:34:26 10° N 20:39:53 73° ENE 20:42:13 35° SSE
Iridium 4 Rocket 4.0 20:41:58 31° E 20:42:25 32° E 20:46:12 10° NNE
SPOT 1/Viking Rocket 4.3 20:39:53 20° SSW 20:43:19 47° W 20:48:23 10° NNW
Cosmos 1980 Rocket 2.7 20:38:42 10° NW 20:44:13 53° WSW 20:47:05 27° S
Cosmos 1703 Rocket 3.5 20:41:37 10° N 20:46:00 72° E 20:47:06 48° SSE
Cosmos 2242 Rocket 3.5 20:41:32 10° N 20:46:01 85° W 20:47:28 42° S
Cosmos 1763 Rocket 3.6 20:43:52 10° NNW 20:49:13 71° ENE 20:51:08 40° SE
SL-4 R/B 1.6 20:45:45 10° WSW 20:49:37 88° NNW 20:51:35 26° ENE
Meteor 1-14 Rocket 4.3 20:46:52 32° S 20:49:38 68° E 20:55:32 10° NNE
Cosmos 1500 4.1 20:50:18 32° ENE 20:50:18 32° ENE 20:53:16 10° NNE
Genesis I 3.9 20:46:24 10° NW 20:50:06 42° WSW 20:50:44 38° SSW
Cosmos 405 Rocket 2.5 20:49:22 52° SSW 20:50:12 83° W 20:53:57 10° N
BREEZE-M DEB (TANK) 3.1 20:47:16 10° W 20:50:29 78° N 21:00:47 10° E
ATLAS 5 CENTAUR R/B 4.5 20:49:06 10° WNW 20:52:49 17° WSW 20:56:48 10° SSW
Cosmos 2333 Rocket 4.3 20:51:05 10° N 20:55:09 19° NE 20:59:10 10° E
MOS 1-B Rocket 4.5 20:50:03 10° NNE 20:55:15 36° E 20:56:13 33° ESE
Cosmos 1697 Rocket 4.5 20:55:13 10° NW 20:59:31 23° WSW 21:03:04 13° SSW
Cosmos 1459 Rocket 4.2 20:58:06 37° SSE 21:00:22 55° E 21:06:33 10° NNE
Cosmos 1833 Rocket 4.3 20:56:09 10° WSW 21:01:15 35° NW 21:06:24 10° NNE
Cosmos 1153 Rocket 4.5 21:03:26 28° SSW 21:06:54 82° W 21:13:08 10° N
Meteor 1-18 Rocket 4.5 21:01:55 10° NNW 21:07:27 62° W 21:09:50 34° SSW
CENTAUR R/B 2.5 21:04:46 32° S 21:07:33 59° ESE 21:14:26 10° NE
Cosmos 1867 3.9 21:02:14 10° SW 21:07:39 65° NW 21:13:06 10° NE
Okean 1-7 3.0 21:03:19 10° NNW 21:07:40 77° W 21:08:30 56° SSW
Cosmos 2221 Rocket 4.3 21:04:21 10° N 21:08:33 39° ENE 21:09:01 38° E
Okean 3 3.7 21:09:30 10° N 21:13:43 52° ENE 21:13:59 51° E
FALCON 9 DEB 3.4 21:11:49 10° WSW 21:15:17 68° NNW 21:15:22 68° NNW
Cosmos 1802 Rocket 4.2 21:13:52 41° SSE 21:15:55 59° E 21:22:10 10° NNE
Cosmos 1850 Rocket 3.9 21:14:19 42° SSW 21:16:11 82° ESE 21:21:30 10° NNE
Thor Agena Rocket 4.2 21:11:41 10° NNE 21:16:19 35° E 21:16:25 35° E
Meteor 2-4 Rocket 3.6 21:11:29 10° NNW 21:17:14 90° ENE 21:18:53 48° S
Cosmos 1515 4.1 21:14:17 10° NNW 21:18:01 51° W 21:18:22 49° WSW
SL-27 R/B 3.7 21:19:37 32° NE 21:19:37 32° NE 21:21:35 10° NNE
Cosmos 44 3.5 21:17:04 10° NNW 21:21:56 64° NE 21:23:09 48° ESE
ATLAS 5 CENTAUR R/B 2.3 21:19:19 10° NW 21:22:03 62° NE 21:23:25 42° ESE
Cosmos 2346 Rocket 4.5 21:19:11 10° N 21:25:13 65° ENE 21:26:55 46° SE
Spot 4 4.0 21:27:26 52° ESE 21:28:09 58° ENE 21:32:53 10° N
USA 267 4.0 21:23:26 10° NE 21:29:45 53° NNW 21:36:03 10° W
BREEZE-M DEB (TANK) 4.3 21:16:46 10° W 21:32:38 77° S 21:35:18 32° E
NOSS 3-2 (A) 3.8 21:28:03 10° SW 21:33:48 66° NW 21:40:30 10° NE
NOSS 3-2 (C) 3.3 21:35:51 24° SW 21:39:35 87° NW 21:46:16 10° NE
Cosmos 841 Rocket 3.4 21:35:57 10° NNW 21:41:12 81° WSW 21:42:00 64° S
Cosmos 540 Rocket 3.3 21:37:26 10° NNW 21:42:38 82° WSW 21:43:22 66° S
SL-16 R/B 2.4 21:37:34 10° NW 21:43:09 60° WSW 21:44:17 50° SSW
Lacrosse 5 1.8 21:40:17 10° WNW 21:45:20 65° SW 21:45:31 64° SSW
Cosmos 1378 Rocket 4.4 21:47:35 10° N 21:51:46 40° ENE 21:51:46 40° ENE
Cosmos 1570 Rocket 4.1 21:47:10 10° NNW 21:52:27 65° WSW 21:53:10 58° SSW
Tsikada Rocket 4.0 21:46:57 10° N 21:53:22 76° E 21:54:55 53° SSE
Cosmos 2219 Rocket 3.3 21:49:11 10° NNW 21:54:25 36° NE 21:56:38 26° E
Cosmos 2208 Rocket 3.9 21:49:18 10° NNW 21:54:35 73° WSW 21:55:11 65° SSW
Cosmos 2082 Rocket 4.3 21:50:08 10° W 21:54:49 26° NW 21:59:31 10° N
Cosmos 1814 Rocket 3.9 21:49:45 10° NNW 21:54:57 76° WSW 21:55:32 68° SSW
Cosmos 2084 Rocket 3.7 21:59:01 60° NE 21:59:01 60° NE 22:02:35 10° NE
Cosmos 2237 4.1 21:53:54 10° NNW 21:59:39 87° WSW 22:00:34 64° SSE
Terra 3.7 22:00:02 18° WSW 22:01:20 20° W 22:04:51 10° NW
Cosmos 2322 Rocket 2.6 21:59:59 10° NW 22:05:28 50° WSW 22:06:13 47° SW
EO 1 Del DPAF 3.9 22:02:05 10° NNE 22:04:57 50° NNE 22:04:57 50° NNE
Meteor 1-11 Rocket 3.7 22:09:09 57° SSW 22:10:18 77° WNW 22:16:05 10° N
Helios 1A 4.1 22:13:11 34° ENE 22:13:11 34° ENE 22:16:59 10° N
Cosmos 1242 Rocket 3.6 22:09:32 10° NNW 22:12:07 45° NNW 22:12:07 45° NNW
Cosmos 2360 Rocket 2.1 22:14:08 10° NNW 22:19:48 69° WSW 22:20:19 64° SSW
COSMOS 2428 3.4 22:15:22 10° NNW 22:20:55 48° NE 22:22:37 37° E
ATLAS 3B R/B 2.5 22:21:13 56° S 22:22:36 74° SE 22:29:14 10° NE
Okean 2 4.5 22:21:40 10° N 22:25:03 36° ENE 22:25:03 36° ENE
ALOS 2 2.7 22:27:44 68° WNW 22:27:44 68° WNW 22:31:45 10° NNW
Cosmos 1725 Rocket 4.3 22:27:20 44° SW 22:29:09 62° WNW 22:35:27 10° N
SL-4 R/B 3.9 22:25:51 10° WNW 22:27:13 20° WNW 22:27:13 20° WNW
Nimbus 7 Rocket 4.3 22:25:21 10° NNE 22:31:15 89° ESE 22:32:15 64° SSW
Cosmos 1674 Rocket 3.9 22:29:26 10° NNW 22:33:13 57° WNW 22:33:13 57° WNW
Cosmos 2297 Rocket 4.4 22:34:20 11° E 22:34:20 11° E 22:35:52 10° ENE
Cosmos 1536 3.8 22:34:39 40° WNW 22:34:39 40° WNW 22:38:05 10° N
Cosmos 1666 4.3 22:37:32 29° WNW 22:37:32 29° WNW 22:40:29 10° N
Cosmos 1743 3.6 22:38:17 48° NNE 22:38:17 48° NNE 22:41:11 10° N
Cosmos 2333 Rocket 2.2 22:34:36 10° NNW 22:40:25 77° ENE 22:41:19 63° SE
Cosmos 1271 Rocket 3.7 22:38:04 10° NNW 22:40:47 45° NNW 22:40:47 45° NNW
Lacrosse 4 Rocket 2.2 22:45:23 47° NE 22:45:23 47° NE 22:48:28 10° NE
Cosmos 2237 Rocket 3.6 22:39:29 10° NNW 22:44:33 32° NE 22:47:32 20° E
Cosmos 1733 Rocket 4.1 22:50:59 36° WNW 22:51:04 36° WNW 22:55:10 10° N
Meteor 2-11 Rocket 4.3 22:51:23 65° SSW 22:52:21 86° W 22:58:30 10° N
Cosmos 44 Rocket 3.6 22:51:55 10° NNW 22:56:52 63° NE 22:57:31 57° E
Cosmos 836 Rocket 4.4 22:52:56 10° NNW 22:58:03 71° WSW 22:58:03 71° WSW
CENTAUR R/B 3.7 22:52:34 10° WSW 22:58:34 42° NNW 23:05:36 10° NE
Cosmos 968 Rocket 3.3 22:59:01 88° SE 22:59:02 88° ESE 23:04:12 10° NNE
Cosmos 1975 3.6 23:02:22 50° NNE 23:02:22 50° NNE 23:05:28 10° NNE
SL-24 DEB 4.4 23:00:37 10° N 23:05:19 69° WNW 23:05:19 69° WNW
Cosmos 1354 Rocket 4.1 23:07:09 63° ESE 23:07:09 63° ESE 23:12:26 10° NNE
Resurs 1-4 Rocket 4.3 23:04:42 10° ENE 23:07:13 13° E 23:08:21 13° E
Cosmos 1782 Rocket 3.8 23:10:37 65° NNE 23:10:37 65° NNE 23:14:23 10° N
USA 267 4.5 23:06:03 10° ENE 23:12:05 41° N 23:18:08 10° WNW
Cosmos 1464 Rocket 3.9 23:15:36 63° S 23:16:41 82° E 23:22:55 10° N
Cosmos 1707 3.8 23:13:02 10° N 23:16:13 40° NE 23:16:13 40° NE
Cosmos 1908 Rocket 4.2 23:18:33 46° WNW 23:18:33 46° WNW 23:22:29 10° N
Cosmos 1842 4.2 23:14:49 10° NNW 23:17:41 44° NW 23:17:41 44° NW
Helios 1B rocket 3.3 23:18:35 10° NNE 23:21:48 42° ENE 23:21:48 42° ENE
CZ-4 R/B 3.9 23:17:57 10° NNE 23:22:56 69° ESE 23:23:00 68° ESE
Cosmos 2227 Rocket 3.6 23:22:42 24° ESE 23:23:05 24° ESE 23:27:33 10° NE
Meteor 1-21 4.1 23:18:54 10° NNW 23:24:44 78° W 23:25:21 69° SSW
Cosmos 2322 4.5 23:24:42 10° NW 23:29:31 37° W 23:29:31 37° W
Nadezhda 4 Rocket 3.9 23:30:26 10° N 23:36:47 89° WSW 23:38:04 60° S
Cosmos 2219 Rocket 2.6 23:33:07 10° NW 23:38:19 45° WSW 23:38:19 45° WSW
Cosmos 1975 Rocket 3.9 23:38:43 10° NNW 23:42:25 42° WNW 23:42:25 42° WNW
Okean 2 Rocket 3.2 23:45:22 73° ENE 23:45:22 73° ENE 23:49:39 10° NNE
Cosmos 2034 Rocket 3.9 23:43:53 60° SSW 23:45:10 86° W 23:51:32 10° N
Cosmos 1503 Rocket 4.3 23:45:55 52° W 23:46:45 58° WNW 23:52:04 10° NNE
SL-16 R/B 3.3 23:46:15 25° SE 23:49:40 49° ENE 23:55:40 10° N
ADEOS II 4.4 23:48:34 10° ENE 23:50:57 13° E 23:53:20 10° ESE
Cosmos 1092 Rocket 4.0 23:44:44 10° N 23:51:01 76° E 23:52:45 49° SSE
Cosmos 1300 Rocket 3.6 23:52:28 75° NE 23:52:28 75° NE 23:56:29 10° N
GEOS 3 Rocket 4.0 23:47:43 10° NE 23:52:59 49° SE 23:53:17 49° SE
CZ-2D R/B 3.3 23:48:36 10° NNE 23:53:31 32° E 23:54:54 29° ESE
Sich 1 Rocket 3.9 23:55:31 55° WNW 23:55:31 55° WNW 23:59:36 10° N
